Starlink 34950

operational
NORAD ID: 65193 Int'l Des: 2025-175 Owner: SPXS Country: US Constellation: starlink
LEOCIRCULARRETROGRADESSO

Starlink 34950について

説明を読み込み中...

リアルタイム位置

3D地球を読み込み中...

次回通過

高度履歴

Altitude vs Time

uPlot chart will show altitude changes over time

軌道要素

1 65193U 25175V 25340.91516509 .00011185 00000-0 77819-3 0 9995
2 65193 97.6025 211.2619 0003470 89.3189 270.8436 15.05645705 18657
Epoch: Dec 6, 2025 • Age: 20 hours

現在のステータス

高度 574.7 km
速度 7.57 km/s
衛星直下点 -60.22°S, 127.69°W
打ち上げ日 Aug 14, 2025
運用期間 0.3 years
タイプ internet

技術仕様

分類 Payload
質量 575.00 kg
乾燥質量 530.00 kg
総質量 575.00 kg
長さ 0.30 m
直径 4.10 m
スパン 29.00 m
形状 Box + pan
製造者 SPXS
バスタイプ Starlink V2MO
フェーズステータス In Orbit
所有者/国 SPXS/US

大規模コンステレーション

Loading constellations...